Showing default

IRIDIUM 108, 41924

Orbit data source: Space-Track

IRIDIUM 108, 41924 is a payload satellite owned by Iridium (US) in LEO that was launched on Sat, 14 Jan 2017 UTC via an FALCON 9 launch vehicle from the Air Force Western Test Range (AFWTR). Payload-class satellites include a variety of spacecraft equipped with specific instruments for various scientific and technological missions. These include communications satellites like Starlink; space stations such as the ISS; scientific satellites like the Hubble; Earth observation satellites from companies like Planet Labs, Umbra, and HawkEye 360; GPS; miniature CubeSats for education and research; and military/defense satellites.

Loading next visibility...
Identifier
41924, 2017-003H
Orbit
LEO
Country
Flag of USUS
Related business
Manufacturer
OATK SSG Gilbert
Mission
Operational Commercial Communications
Bus & Motor
ELITEBUS, Unknown motor
Mass
860 kg wet, 700 kg dry
Launch date (UTC)
2017-01-14 (9 years ago)
Launch vehicle
FALCON 9
Launch site
Air Force Western Test Range (AFWTR)
Object type
Payload
Rocket body
Debris
Shape & HBR
Trap Box + 2 Pan, 4.8 m
Radar Cross Section
10.154 m², Large (>1 m²)

Expand to show TLE details & history
Last TLE update: 14 hours ago

TLE from 14 hours ago
0 IRIDIUM 108
1 41924U 17003H   25353.24151092  .00000230  00000-0  75235-4 0  9994
2 41924  86.3978 132.0054 0002095  89.9690 270.1746 14.34218450469317
Epoch: 2025-12-19T05:47Z
TLE epoch observation values (Epoch: 2025-12-19T05:47:46.543Z)
Latitude
-0.00001°
Longitude
-43.02402°
Altitude
780.712 km
Speed
7.463 km/s
True Right ascension
08h 48m 01s
True Declination
0° 00' 00"
Sunlit
Object was in full shadow at epoch
Visualization orbit readout
Latitude
Unknown
Longitude
Unknown
Altitude
Unknown
Speed
Unknown
Apparent Right ascension
Unknown
Apparent Declination
Unknown
Sunlit
N/A
Visualization observer readout
Local Sidereal Time
18:13:36
Azimuth
Unknown
Elevation
Unknown
Doppler factor
Unknown
Orbital elements
Apogee altitude
776.128 km
Perigee altitude
773.131 km
Semi-major axis
7,152.766 km
Eccentricity
0.00021
Inclination
86.3978°
RAAN
132.0054°
Arg. of periapsis
89.969°
True anomaly
270.15059°
Mean anomaly
270.1746°
Eccentric anomaly
270.1626°
Mean motion
3.58783 °/min
Orbital period
100.34 mins
BSTAR
0.000075235
Loading maneuver chart data...
Computing Atmospheric mass density...
Loading historical data...
Loading historical data...
Loading historical data...
Loading historical data...
Loading historical data...
Loading historical data...
Loading historical data...

Documentation

Showing up to 5 results
|